Location: Unspecified
(49.9820°N, 20.4363°E)
Time: 04:52:34
(UTC+02:00)

Vanguard 3 - Pass Details

Date: 20 May 2026
Orbit: 507 x 3204 km, 33.3° (Epoch: 6 June)

Event Time Altitude Azimuth Distance (km) Brightness Sun altitude
Rises 09:52:04 0° 174° (S) 5,641 11.8 46.1°
Reaches altitude 10° 09:59:02 10° 150° (SSE) 5,240 12.1 47.1°
Maximum altitude 10:04:45 13° 128° (SE) 5,378 12.4 47.8°
Drops below altitude 10° 10:11:02 10° 107° (ESE) 5,924 12.4 48.7°
Sets 10:20:14 0° 86° (E) 7,152 12.4 49.9°
